Theta_e
312 312 311 311 311 311 311 311 310 310 310 309 310 311 312 314 315 315 316 317 318 317 316 317 317 317 318 320 320 320 314 315 318 320 319 317 316 317 317 317 317 317 317 317 318
310 310 310 311 311 312 312 313 312 312 311 310 310 310 310 312 313 314 316 317 317 317 316 317 319 318 318 320 320 319 316 319 319 318 317 317 316 317 316 316 315 317 317 317 316
310 310 311 311 311 312 312 313 313 313 313 313 312 310 310 310 312 315 318 317 317 317 316 317 319 318 319 320 320 318 315 317 318 319 318 317 316 317 315 312 316 317 316 316 316
311 311 312 312 312 312 312 313 313 313 313 312 312 312 311 310 310 319 317 317 318 316 315 316 318 319 317 318 321 319 319 319 319 319 318 316 316 316 316 317 317 318 317 317 316
312 312 312 312 312 312 312 312 312 312 312 312 312 311 310 312 312 313 314 316 316 316 316 315 317 318 318 319 319 318 317 319 319 318 317 317 316 314 316 317 317 317 317 316 316
312 312 312 312 312 312 312 313 313 313 313 313 312 310 309 313 314 314 314 314 315 316 316 314 316 317 318 317 316 317 317 316 317 318 317 315 314 315 317 317 316 316 317 317 317
308 309 310 311 312 312 313 313 314 314 314 314 313 311 310 312 314 314 314 313 314 314 315 314 314 315 316 317 317 317 315 312 314 315 314 316 313 312 318 316 316 317 317 317 317
311 311 309 308 308 308 310 312 313 314 315 314 312 310 311 314 314 314 314 314 313 314 313 314 314 313 316 316 315 315 314 314 314 313 315 315 314 313 317 316 316 316 316 317 317
312 312 312 311 311 310 308 307 308 310 312 313 311 310 312 314 315 315 315 313 313 314 313 312 313 313 315 312 311 312 312 313 314 314 312 312 313 312 316 316 316 316 316 317 317
314 313 313 313 312 312 312 311 309 307 307 310 311 315 314 315 314 314 314 313 314 313 312 312 313 310 311 310 312 311 313 313 313 313 313 312 313 313 315 314 314 315 315 316 316
315 315 314 315 314 313 313 313 310 312 313 312 314 313 315 314 314 314 314 313 312 312 311 312 310 311 312 312 312 312 311 311 313 313 314 314 313 314 313 313 312 315 316 317 317
318 317 317 319 318 314 313 310 310 311 309 308 308 311 313 315 314 314 313 312 312 311 312 313 312 312 312 311 312 312 312 312 313 311 311 312 313 313 310 313 314 314 315 316 315
319 320 321 321 320 316 314 310 308 307 309 308 311 309 309 310 313 314 313 313 310 311 311 312 313 313 313 313 313 312 312 312 312 312 310 310 311 312 311 312 314 315 316 316 315
322 321 322 323 321 322 316 312 308 308 306 309 310 311 310 311 309 311 312 312 311 311 310 311 312 312 312 312 312 313 311 312 312 312 313 311 314 311 311 311 310 313 316 316 316
322 322 323 322 322 322 321 312 308 308 309 311 309 310 311 309 308 309 310 310 310 311 310 311 312 310 311 312 311 313 312 312 313 312 311 313 312 314 310 310 311 311 314 316 316
326 324 322 322 322 322 322 311 309 306 308 311 309 309 309 310 309 307 307 308 308 308 308 308 310 311 311 310 310 310 311 311 310 308 312 310 311 312 310 311 311 311 314 316 317
325 325 322 322 321 321 322 311 312 307 309 312 310 310 310 310 309 306 306 305 306 309 307 308 308 308 310 311 308 310 310 311 310 310 314 309 310 313 312 310 310 311 315 317 316
322 323 323 322 322 322 320 313 317 318 312 312 311 310 310 310 310 308 308 307 305 307 309 310 310 308 307 310 309 308 310 310 309 312 313 309 310 311 310 310 313 315 316 315 314
318 320 322 322 320 320 316 315 322 318 319 320 321 321 312 310 309 309 307 307 307 307 309 308 310 308 307 308 309 309 310 310 311 297 307 313 310 309 310 309 308 309 309 311 313
318 318 318 319 321 316 311 320 317 317 319 319 323 321 321 319 311 311 309 308 310 307 309 310 310 309 306 307 307 308 307 310 309 309 307 312 309 312 311 312 311 308 306 311 312
312 315 317 318 318 312 314 314 315 316 316 318 320 321 320 320 320 317 313 312 309 309 308 308 310 311 305 306 308 306 308 308 309 309 313 312 313 309 311 310 310 307 309 311 312
311 315 315 317 313 311 316 312 315 315 315 315 314 316 317 317 319 320 320 316 313 310 312 309 310 310 310 306 305 307 309 309 311 311 308 312 313 313 309 310 307 310 312 311 311
309 312 312 314 315 315 310 312 313 314 314 315 316 316 316 317 317 316 316 315 315 313 312 311 311 314 313 311 305 307 306 308 309 308 311 313 313 312 311 311 311 307 309 311 311
305 309 310 310 312 314 315 314 314 313 312 313 314 314 315 317 316 317 317 315 315 314 312 312 310 313 316 314 312 311 310 308 310 311 312 312 312 311 311 310 310 310 311 310 311
300 304 308 307 310 311 311 312 313 314 312 313 313 314 314 315 316 316 315 314 314 312 311 312 312 311 312 313 312 312 313 312 311 311 311 312 311 309 310 310 310 310 310 310 309
299 302 302 302 304 307 310 310 311 310 310 311 311 310 312 312 313 314 313 313 314 311 311 311 314 314 314 311 311 313 312 312 312 312 312 311 311 310 311 311 311 311 311 310 310
296 297 298 299 299 301 304 305 306 306 306 307 304 304 305 306 305 303 304 305 308 311 312 312 311 314 316 313 313 313 313 313 312 311 311 312 311 310 310 310 311 311 311 311 310
Wind_Speed
8 8 8 8 9 9 9 9 9 10 10 11 10 10 9 8 10 12 11 6 3 4 3 1 1 2 3 3 6 2 3 3 5 3 1 6 4 5 5 7 8 13 12 11 9
7 8 8 8 8 9 9 10 10 11 11 11 11 11 11 11 12 15 12 10 7 6 5 2 2 1 2 3 4 4 3 6 4 3 3 2 7 7 5 8 10 16 21 22 19
10 10 9 9 10 9 9 9 10 11 12 12 12 12 12 11 13 5 4 13 11 9 7 4 5 5 4 6 7 5 6 5 5 7 5 4 4 8 9 7 19 24 30 27 26
14 13 13 12 12 11 11 11 11 11 12 12 12 12 12 11 4 2 4 5 15 13 9 7 6 5 4 5 12 4 12 19 15 14 6 3 6 7 18 29 12 10 19 29 31
17 17 16 16 15 15 14 13 13 13 12 13 13 13 12 8 14 16 15 11 12 15 13 10 9 6 4 4 4 5 6 15 18 15 17 15 17 12 24 29 26 29 29 26 28
20 20 19 18 18 17 17 16 15 15 14 14 15 14 12 9 12 11 11 12 14 17 16 14 8 8 8 7 4 4 10 13 19 27 18 10 8 7 29 26 25 32 34 33 36
18 20 22 22 21 21 20 18 18 18 17 16 16 15 16 23 19 18 16 14 14 17 19 15 15 12 2 4 6 6 8 9 19 22 7 11 9 14 38 29 24 25 28 33 39
17 18 19 20 21 23 24 23 22 21 20 19 17 14 13 17 18 20 20 18 16 18 19 17 14 13 9 5 5 2 2 5 6 9 6 12 15 11 12 20 29 34 34 31 33
16 17 18 19 20 21 22 21 23 24 23 21 16 10 9 15 18 17 18 17 15 17 17 15 12 8 4 4 5 3 6 8 11 10 6 6 12 10 18 22 32 33 32 34 37
15 16 16 17 18 19 20 20 20 20 20 15 12 5 18 14 13 12 14 15 12 11 8 8 9 3 1 5 9 7 6 6 9 4 4 6 19 15 25 14 19 25 27 35 42
15 15 15 15 17 18 19 15 7 4 7 10 7 9 7 15 11 13 14 17 10 8 7 10 5 10 23 16 6 5 6 8 19 10 10 17 18 21 28 23 25 38 42 46 51
14 14 14 13 14 14 13 8 7 8 11 19 25 28 27 25 11 16 15 13 10 8 5 2 12 19 5 10 11 12 15 16 16 12 10 14 21 18 10 17 27 30 39 48 45
14 14 15 14 13 11 13 8 9 10 6 11 29 26 35 33 22 23 23 14 7 6 9 18 11 18 12 9 8 20 15 19 18 10 6 8 11 13 12 17 30 38 45 47 46
16 15 16 14 7 15 9 12 11 6 3 6 5 5 11 10 5 11 20 13 6 13 8 11 13 11 6 7 12 23 9 15 10 3 12 4 14 8 7 12 10 26 38 42 45
19 17 16 15 13 11 12 11 7 3 6 4 3 3 8 9 3 2 20 8 5 4 6 10 3 8 13 24 9 18 3 4 1 4 5 6 6 3 8 8 11 16 37 42 40
21 21 19 19 17 12 8 9 1 4 8 4 4 3 3 2 1 2 1 4 2 2 6 11 2 4 7 2 5 2 1 1 2 2 12 8 9 6 7 9 6 11 29 35 29
24 20 24 19 17 13 9 3 3 5 4 4 4 4 2 5 4 6 4 4 6 1 5 3 12 4 6 3 2 3 4 4 4 1 13 12 11 23 5 7 11 13 25 30 31
21 22 20 16 26 22 10 3 6 5 9 1 4 2 7 8 7 7 4 4 7 2 2 4 14 12 8 14 11 8 9 6 7 10 19 4 8 6 10 14 26 31 34 32 28
19 22 25 24 22 25 11 3 8 6 6 6 10 10 4 5 7 7 8 7 10 18 11 7 13 2 4 2 8 5 6 8 1 2 3 9 12 7 7 10 11 20 10 23 24
17 19 25 21 17 25 2 12 8 6 3 3 11 7 12 12 1 1 5 4 6 15 20 6 8 8 4 1 3 5 2 1 1 3 7 17 6 14 15 22 19 7 10 14 17
17 9 9 9 17 13 7 9 8 14 13 8 14 18 17 14 9 7 5 16 4 6 6 6 8 16 5 7 10 1 4 5 2 5 13 15 14 6 2 6 7 7 9 11 10
7 4 13 16 8 6 10 6 11 13 16 10 4 10 10 9 12 14 17 18 16 4 2 2 4 4 11 7 6 5 7 9 9 10 4 7 15 20 8 5 7 5 2 1 5
7 11 12 28 8 9 4 5 6 11 9 5 7 10 11 12 9 12 11 16 26 10 7 4 2 4 8 13 3 6 7 7 6 3 11 13 14 27 24 26 31 12 24 27 45
4 3 9 20 20 12 15 13 13 20 16 19 13 13 14 17 18 11 15 13 23 18 21 13 9 12 17 16 8 8 7 9 15 11 22 21 32 27 32 31 27 30 44 39 40
7 4 5 4 12 14 15 13 22 18 15 15 7 21 23 20 25 29 26 27 22 15 11 12 10 18 26 27 30 29 26 26 21 21 19 28 25 24 31 29 26 38 39 34 30
4 3 7 8 12 6 11 16 20 22 12 19 17 23 17 15 20 24 22 18 18 4 19 11 17 18 21 27 31 31 32 33 34 33 26 32 32 33 32 45 37 50 46 32 34
6 15 7 8 1 2 10 14 10 8 6 3 12 13 12 14 20 28 31 31 23 14 11 10 7 11 26 20 23 24 32 37 30 24 24 28 35 36 35 31 33 43 46 33 38
Wind_Direction
333 339 344 350 353 357 0 2 360 360 360 357 349 340 325 310 288 281 279 258 263 272 278 241 40 144 173 228 235 268 48 260 262 299 252 171 157 196 232 233 206 206 237 236 227
314 321 327 332 337 341 345 346 346 346 348 349 348 343 328 316 300 278 261 257 257 254 255 220 93 137 224 239 198 165 154 235 223 292 284 216 201 197 209 235 236 234 238 246 244
308 311 314 316 320 323 325 328 331 332 334 337 337 338 331 320 307 275 285 240 236 239 243 239 201 212 240 223 204 201 212 219 284 297 299 277 253 242 203 236 232 238 242 242 244
301 303 305 307 308 309 311 315 317 319 323 323 323 325 323 317 287 219 329 283 226 230 227 218 185 178 231 224 217 228 246 255 283 278 263 256 271 257 236 248 256 267 254 251 242
295 298 300 301 302 304 306 306 307 309 312 313 314 315 309 280 272 283 282 277 231 226 226 217 196 213 232 251 307 231 260 272 270 288 256 250 254 257 265 261 261 256 258 255 253
293 294 295 296 298 298 299 301 302 302 303 306 308 309 290 245 281 278 275 266 243 230 226 220 208 215 267 253 225 257 269 274 280 273 259 213 260 233 271 274 266 252 247 253 254
295 295 297 297 294 292 291 293 295 296 298 299 300 298 277 271 273 272 270 262 246 235 233 228 228 230 253 288 268 283 315 308 267 257 223 204 282 224 268 261 258 255 254 248 252
300 304 305 306 302 297 295 294 291 289 291 293 292 282 261 270 261 259 259 254 240 232 235 237 233 240 239 259 306 246 206 286 273 134 203 151 260 248 253 251 251 249 251 247 252
302 305 306 309 308 306 304 300 291 287 288 287 281 243 259 254 250 250 249 245 236 232 231 236 221 221 203 120 340 266 240 216 295 199 141 171 257 270 266 240 248 256 252 253 254
314 311 310 316 314 309 308 308 305 292 278 274 237 237 237 236 240 244 237 232 219 210 210 186 191 178 222 127 226 213 226 244 240 196 160 195 248 261 260 249 245 259 266 268 266
326 326 323 329 329 325 318 323 310 304 245 219 199 222 288 235 247 239 222 207 200 186 187 196 147 205 228 201 227 250 252 236 268 260 205 241 238 255 257 260 255 261 267 269 272
324 327 328 340 338 333 332 338 310 279 299 258 255 255 255 267 249 238 217 187 182 209 166 244 218 221 213 205 225 247 257 263 274 270 196 249 254 253 242 246 250 248 259 266 268
315 321 324 341 342 1 351 354 315 295 260 269 254 246 239 239 238 242 214 202 196 196 204 222 219 218 225 235 261 250 248 259 256 294 232 281 266 248 245 250 252 255 259 265 267
305 308 313 334 330 346 353 341 331 331 290 266 227 225 205 192 267 225 209 215 217 225 203 247 235 220 193 210 195 262 218 258 267 257 271 134 290 218 231 239 237 247 257 261 269
290 293 298 307 311 335 335 334 313 359 299 258 199 201 170 178 150 194 198 204 210 204 144 234 218 202 225 234 194 261 182 237 248 239 318 176 285 201 197 242 247 245 252 265 270
278 278 276 284 289 303 327 336 258 54 253 273 147 157 122 263 72 66 134 183 350 316 256 247 166 214 212 171 193 110 203 199 40 84 264 189 209 184 195 213 235 246 254 259 259
280 271 265 269 267 273 280 109 311 198 299 211 234 160 146 194 223 174 167 182 184 241 242 290 226 170 156 176 286 170 78 301 315 24 260 184 222 252 275 216 214 231 241 237 248
279 266 270 269 260 261 246 85 201 209 227 260 78 120 192 165 230 189 171 238 241 243 316 253 284 158 187 200 189 184 176 173 225 259 277 157 251 256 224 232 244 240 247 249 245
280 274 264 260 251 248 180 177 225 177 245 360 342 318 255 260 222 158 202 206 206 189 201 208 263 309 192 176 151 169 181 219 334 64 0 257 274 294 256 281 271 247 252 252 246
279 286 275 271 254 216 186 235 228 195 30 350 270 198 265 262 255 262 198 214 225 189 217 234 263 195 146 140 328 170 146 110 278 208 242 273 274 271 286 278 272 240 211 212 203
269 270 251 247 217 178 220 226 249 236 241 221 244 252 245 265 249 238 237 303 322 344 245 295 244 258 123 194 183 150 247 234 215 181 243 258 271 152 97 316 291 260 223 200 221
237 239 214 201 182 235 225 221 232 244 238 250 254 254 252 273 263 252 244 224 236 120 350 310 294 292 253 289 201 168 213 215 238 259 237 272 265 276 294 334 288 110 239 216 275
227 233 233 194 223 231 210 247 269 263 225 224 224 235 240 247 257 229 241 251 258 224 163 166 202 272 289 284 231 211 197 211 242 227 244 264 266 275 277 281 274 247 275 275 287
247 240 202 210 230 237 253 235 245 249 261 246 260 262 257 258 253 263 255 248 238 245 219 190 198 202 232 238 271 264 257 255 249 254 259 247 256 263 270 262 269 273 268 270 272
222 252 229 216 231 237 246 264 262 265 236 251 225 232 248 260 258 260 250 260 257 224 165 176 231 220 231 236 252 261 254 252 250 249 246 257 257 253 258 274 273 277 273 272 275
258 287 331 309 305 288 232 242 260 267 262 273 274 284 300 288 284 285 290 259 239 225 221 207 247 227 234 227 226 237 246 249 252 248 250 254 258 256 261 266 271 270 271 285 281
246 265 267 274 283 293 260 264 283 327 286 334 345 326 308 303 314 303 290 285 284 289 291 247 248 226 249 227 232 239 236 240 247 250 241 247 246 250 258 260 259 273 282 282 275